Weather History for Milledgeville, GA

Change the Weather History Date:

Friday, December 14, 2012

  Actual Average (KOKZ) Record (KOKZ)
Temperature  
Mean Temperature 48 °F -  
Max Temperature 60 °F 59 °F 63 °F (2013)
Min Temperature 35 °F 39 °F 47 °F (2013)
Degree Days  
Heating Degree Days 18    
Moisture  
Dew Point 40 °F    
Average Humidity 86    
Maximum Humidity 100    
Minimum Humidity 48    
Precipitation  
Precipitation 0.00 in - - ()
Sea Level Pressure  
Sea Level Pressure 30.31 in    
Wind  
Wind Speed 0 mph (North)    
Max Wind Speed 0 mph    
Max Gust Speed -    
Visibility 9 miles    
Events Fog    
Averages and records for this station are not official NWS values.
T = Trace of Precipitation, MM = Missing Value Source: NWS Daily Summary

Daily Weather History Graph

Daily Weather History Graph

Search for Another Location

Airport:

Trip Planner

Search our weather history database for the weather conditions in past years. The results will help you decide how hot, cold, wet, or windy it might be!

Date:

Astronomy

Dec. 14, 2012 Rise Set
Actual Time 7:28 AM EST 5:27 PM EST
Civil Twilight 7:01 AM EST 5:54 PM EST
Nautical Twilight 6:30 AM EST 6:25 PM EST
Astronomical Twilight 5:59 AM EST 6:55 PM EST
Moon 8:34 AM EST (12/14) 7:15 PM EST (12/14)
Length of Visible Light 10h 53m
Length of Day
9h 58m
Waxing Crescent, 3% of the Moon is Illuminated
Dec 14
Waxing Crescent
Dec 20
First Quarter
Dec 28
Full
Jan 4
Last Quarter
Jan 11
New

Hourly Weather History & Observations

Time (EST) Temp. Dew Point Humidity Pressure Visibility Wind Dir Wind Speed Gust Speed Precip Events Conditions
12:15 AM 41.0 °F 41.0 °F 100% 30.34 in 0.2 mi Calm Calm - N/A Fog Fog
12:55 AM 37.4 °F 37.4 °F 100% 30.32 in 1.5 mi Calm Calm - N/A   Mostly Cloudy
1:15 AM 37.4 °F 37.4 °F 100% 30.32 in 5.0 mi Calm Calm - N/A   Clear
1:35 AM 37.4 °F 37.4 °F 100% 30.32 in 10.0 mi Calm Calm - N/A   Clear
1:55 AM 37.4 °F 37.4 °F 100% 30.33 in 7.0 mi Calm Calm - N/A   Clear
2:15 AM 37.4 °F 37.4 °F 100% 30.33 in 10.0 mi Calm Calm - N/A   Clear
2:35 AM 37.4 °F 37.4 °F 100% 30.32 in 7.0 mi Calm Calm - N/A   Clear
2:55 AM 37.4 °F 37.4 °F 100% 30.33 in 7.0 mi Calm Calm - N/A   Clear
3:15 AM 37.4 °F 37.4 °F 100% 30.33 in 7.0 mi Calm Calm - N/A   Clear
3:35 AM 35.6 °F 35.6 °F 100% 30.34 in 7.0 mi Calm Calm - N/A   Clear
3:55 AM 37.4 °F 37.4 °F 100% 30.34 in 7.0 mi Calm Calm - N/A   Scattered Clouds
4:15 AM 35.6 °F 35.6 °F 100% 30.34 in 10.0 mi Calm Calm - N/A   Clear
4:55 AM 35.6 °F 35.6 °F 100% 30.35 in 7.0 mi Calm Calm - N/A   Clear
5:15 AM 35.6 °F 35.6 °F 100% 30.35 in 7.0 mi Calm Calm - N/A   Clear
5:35 AM 35.6 °F 35.6 °F 100% 30.34 in 7.0 mi Calm Calm - N/A   Clear
5:55 AM 35.6 °F 35.6 °F 100% 30.33 in 7.0 mi Calm Calm - N/A   Clear
6:15 AM 35.6 °F 35.6 °F 100% 30.33 in 7.0 mi Calm Calm - N/A   Clear
6:35 AM 37.4 °F 37.4 °F 100% 30.35 in 10.0 mi Calm Calm - N/A   Clear
6:55 AM 35.6 °F 35.6 °F 100% 30.37 in 7.0 mi Calm Calm - N/A   Clear
7:15 AM 35.6 °F 35.6 °F 100% 30.38 in 10.0 mi Calm Calm - N/A   Clear
7:35 AM 35.6 °F 35.6 °F 100% 30.38 in 7.0 mi Calm Calm - N/A   Clear
7:55 AM 35.6 °F 35.6 °F 100% 30.38 in 7.0 mi Calm Calm - N/A   Clear
8:15 AM 35.6 °F 35.6 °F 100% 30.39 in 5.0 mi Calm Calm - N/A   Clear
8:35 AM 37.4 °F 37.4 °F 100% 30.40 in 7.0 mi Calm Calm - N/A   Clear
8:55 AM 41.0 °F 41.0 °F 100% 30.40 in 10.0 mi Calm Calm - N/A   Clear
9:15 AM 42.8 °F 42.8 °F 100% 30.40 in 10.0 mi Calm Calm - N/A   Clear
9:35 AM 42.8 °F 42.8 °F 100% 30.40 in 10.0 mi Calm Calm - N/A   Clear
9:55 AM 44.6 °F 44.6 °F 100% 30.40 in 10.0 mi Calm Calm - N/A   Clear
10:15 AM 46.4 °F 44.6 °F 93% 30.40 in 10.0 mi Calm Calm - N/A   Clear
10:35 AM 48.2 °F 41.0 °F 76% 30.40 in 10.0 mi Calm Calm - N/A   Clear
11:15 AM 51.8 °F 41.0 °F 67% 30.39 in 10.0 mi Calm Calm - N/A   Clear
11:35 AM 51.8 °F 41.0 °F 67% 30.38 in 10.0 mi Calm Calm - N/A   Clear
11:55 AM 53.6 °F 41.0 °F 62% 30.36 in 10.0 mi Calm Calm - N/A   Clear
12:15 PM 53.6 °F 41.0 °F 62% 30.35 in 10.0 mi Calm Calm - N/A   Clear
12:35 PM 55.4 °F 41.0 °F 58% 30.33 in 10.0 mi Calm Calm - N/A   Clear
12:55 PM 57.2 °F 41.0 °F 55% 30.31 in 10.0 mi Calm Calm - N/A   Clear
1:35 PM 59.0 °F 41.0 °F 51% 30.27 in 10.0 mi Calm Calm - N/A   Clear
1:55 PM 60.8 °F 41.0 °F 48% 30.27 in 10.0 mi Calm Calm - N/A   Clear
2:15 PM 60.8 °F 41.0 °F 48% 30.25 in 7.0 mi Calm Calm - N/A   Clear
2:35 PM 60.8 °F 41.0 °F 48% 30.25 in 7.0 mi Calm Calm - N/A   Clear
2:55 PM 60.8 °F 41.0 °F 48% 30.24 in 10.0 mi Calm Calm - N/A   Clear
3:35 PM 60.8 °F 41.0 °F 48% 30.24 in 10.0 mi Calm Calm - N/A   Clear
3:55 PM 60.8 °F 41.0 °F 48% 30.24 in 10.0 mi Calm Calm - N/A   Clear
4:15 PM 60.8 °F 41.0 °F 48% 30.23 in 10.0 mi Calm Calm - N/A   Clear
4:35 PM 60.8 °F 41.0 °F 48% 30.23 in 10.0 mi Calm Calm - N/A   Clear
4:55 PM 57.2 °F 42.8 °F 59% 30.23 in 10.0 mi Calm Calm - N/A   Clear
5:35 PM 53.6 °F 42.8 °F 67% 30.23 in 10.0 mi Calm Calm - N/A   Clear
5:55 PM 50.0 °F 42.8 °F 76% 30.23 in 10.0 mi Calm Calm - N/A   Clear
6:15 PM 50.0 °F 42.8 °F 76% 30.23 in 10.0 mi Calm Calm - N/A   Clear
6:35 PM 50.0 °F 42.8 °F 76% 30.23 in 10.0 mi Calm Calm - N/A   Clear
6:55 PM 46.4 °F 42.8 °F 87% 30.24 in 10.0 mi Calm Calm - N/A   Clear
7:15 PM 46.4 °F 42.8 °F 87% 30.25 in 10.0 mi Calm Calm - N/A   Clear
7:35 PM 44.6 °F 42.8 °F 93% 30.25 in 10.0 mi Calm Calm - N/A   Clear
7:55 PM 44.6 °F 42.8 °F 93% 30.25 in 10.0 mi Calm Calm - N/A   Clear
8:15 PM 44.6 °F 42.8 °F 93% 30.25 in 10.0 mi Calm Calm - N/A   Clear
8:35 PM 44.6 °F 42.8 °F 93% 30.24 in 10.0 mi Calm Calm - N/A   Clear
8:55 PM 42.8 °F 42.8 °F 100% 30.25 in 10.0 mi Calm Calm - N/A   Clear
9:15 PM 44.6 °F 44.6 °F 100% 30.26 in 10.0 mi Calm Calm - N/A   Clear
9:35 PM 44.6 °F 44.6 °F 100% 30.26 in 10.0 mi Calm Calm - N/A   Clear
9:55 PM 44.6 °F 44.6 °F 100% 30.25 in 10.0 mi Calm Calm - N/A   Clear
10:15 PM 44.6 °F 44.6 °F 100% 30.27 in 10.0 mi Calm Calm - N/A   Clear
10:35 PM 44.6 °F 44.6 °F 100% 30.25 in 10.0 mi Calm Calm - N/A   Clear
10:55 PM 44.6 °F 44.6 °F 100% 30.24 in 10.0 mi Calm Calm - N/A   Clear
11:15 PM 44.6 °F 44.6 °F 100% 30.23 in 7.0 mi Calm Calm - N/A   Clear
11:35 PM 42.8 °F 42.8 °F 100% 30.22 in 10.0 mi Calm Calm - N/A   Clear
11:55 PM 42.8 °F 42.8 °F 100% 30.22 in 10.0 mi Calm Calm - N/A   Clear